[[{"header":{"parameterUnit":"m.s-1","parameterCategory":1,"la1":30.2991,"la2":30.254,"lo1":-89.0895,"lo2":-89.0444,"dy":0.0017,"dx":0.0017,"nx":28,"ny":28,"refTime":"2024-10-13T03:00:00:Z","depth":0,"parameterNumber":2,"parameterNumberName":"U-component_of_WINDS"},"data":[0,0,0,0,0,0,0,0,0,0,0,0,0,0,0,0,0,0,0,0,0,0,0,0,0,0,0,0,0,0,0,0,0,0,0,0,0,0,0,0,0,0,0,0,0,0,0,0,0,0,0,0,0,0,0,0,0,0,4.8436,4.8437,0,4.8605,4.8606,4.8608,4.8582,4.8579,4.8577,4.8574,4.8748,4.8755,4.8762,0,0,0,0,0,0,0,0,0,0,0,0,0,4.8091,4.8098,4.8435,4.8438,4.844,4.8604,4.8607,4.8609,4.8583,4.8579,4.8576,4.8573,4.8745,4.8754,4.8763,0,0,0,0,0,0,0,0,0,0,0,0,0,4.8249,4.81,4.8435,4.8446,4.8449,4.8604,4.8607,4.8609,4.8584,4.8579,4.8575,4.8571,4.8742,4.8753,4.8764,4.8918,0,0,4.8797,4.8802,0,0,0,0,0,0,0,0,4.824,4.8261,4.8443,4.8446,4.8449,4.8568,4.8549,4.8713,4.8585,4.8533,4.8574,4.8569,4.8691,4.8706,4.8748,4.8926,4.8934,4.8798,4.8805,4.881,4.8813,0,0,0,0,0,0,0,4.8229,4.8254,4.8502,4.8445,4.8449,4.8444,4.8461,4.858,4.8634,4.8537,4.8535,4.8556,4.8692,4.8737,4.8751,4.8936,4.8798,4.8808,4.8815,4.8819,4.9251,4.9256,0,0,0,0,0,0,4.8215,4.8245,4.8497,4.8507,4.8332,4.8453,4.8473,4.8534,4.8633,4.8644,4.8559,4.8554,4.872,4.8739,4.8757,4.8946,4.881,4.882,4.8826,4.9246,4.9252,4.9258,0,0,0,0,0,0,4.8207,4.8237,4.849,4.8376,4.8408,4.8464,4.8533,4.854,4.8584,4.865,4.8659,4.8595,4.8718,4.8742,4.8879,4.8951,4.8825,4.8835,4.9241,4.9248,4.9255,4.9322,0,0,0,0,0,0,4.8198,4.8235,4.8294,4.8377,4.8414,4.8608,4.8537,4.8546,4.8603,4.8598,4.8686,4.8696,4.8716,4.8862,4.889,4.8964,4.8843,4.9234,4.9244,4.9253,4.9314,4.9331,4.9346,0,0,0,0,0,4.8185,4.8306,4.8297,4.8327,4.8488,4.8612,4.8633,4.8654,4.8609,4.8669,4.8711,4.8693,4.8939,4.8877,4.8907,4.8986,4.923,4.9241,4.9252,4.9307,4.9328,4.9345,0,0,0,0,0,0,4.8229,4.8317,4.8308,4.8459,4.8528,4.8608,4.8684,4.8675,4.8759,4.8751,4.8773,4.8793,4.8931,4.8972,4.8901,4.9141,4.9078,4.9096,4.9109,4.913,4.9145,4.9133,4.8853,0,0,0,0,0,4.8256,4.8349,4.8421,4.8547,4.8583,4.8627,4.8682,4.8692,4.8765,4.8794,4.8846,4.8918,4.9012,4.9073,4.9162,4.9319,4.9339,4.9389,4.9404,4.9417,4.9432,4.952,4.9543,4.9294,4.9294,4.9294,0,0,4.8313,4.8373,4.843,4.8558,4.8613,4.8709,4.8652,4.8756,4.8829,4.881,4.8943,4.8984,4.9065,4.9213,4.9281,4.9251,4.9506,4.9431,4.9441,4.945,4.9534,4.9557,4.9578,4.9301,4.93,4.9299,0,0,4.8467,4.8521,4.8633,4.8689,4.8773,4.8802,4.8829,4.8911,4.8937,4.907,4.9059,4.9145,4.9305,4.9364,4.9415,4.9592,4.9579,4.9621,4.9704,4.9789,4.9809,4.9826,4.9891,4.9914,4.9636,4.9636,4.9636,0,4.8528,4.8672,4.8691,4.8797,4.8854,4.8842,4.8956,4.901,4.9119,4.9159,4.9124,4.9325,4.9379,4.9542,4.9585,4.9626,4.9658,4.9611,4.9804,4.9822,4.9839,4.9901,4.9925,4.964,4.964,4.9639,4.9639,0,4.8743,4.8844,4.8924,4.903,4.9096,4.9205,4.9241,4.9306,4.931,4.9343,4.9479,4.9544,4.9647,4.9686,4.9691,4.9849,4.9829,4.9799,4.9737,4.9867,4.9925,4.9949,4.9647,4.9645,4.9644,4.9643,0,0,4.8929,4.9045,4.9074,4.9123,4.9215,4.9293,4.9402,4.9503,4.9558,4.9634,4.9727,4.9863,4.9837,4.9895,4.9906,4.9981,5.0119,4.9942,4.9944,4.9974,5.0299,5.0321,5.0348,5.011,5.0115,5.0118,5.0292,0,4.9093,4.9286,4.9306,4.9479,4.9572,4.9563,4.9658,4.9725,4.9759,4.9844,4.9881,4.9978,4.9935,4.997,5.0043,5.0086,5.0184,5.0074,5.0198,5.0202,5.0178,5.0378,5.0402,5.0563,5.0315,5.0319,5.0322,0,4.9309,4.9392,4.9574,4.9654,4.9694,4.9779,4.9874,4.9954,5.0031,5.005,5.0116,5.0118,5.0231,5.0164,5.0321,5.0246,5.0298,5.0327,5.0333,5.0346,5.027,5.0398,5.0615,5.0639,5.0357,5.0355,5.0352,0,4.9428,4.9585,4.9714,4.9756,4.9852,4.9912,4.9956,5.0028,5.0087,5.017,5.0209,5.0303,5.0356,5.0429,5.0457,5.0405,5.0614,5.0548,5.0634,5.0634,5.0679,5.0676,5.0908,5.0711,5.071,5.071,5.0709,0,4.961,4.9722,4.9769,4.9849,4.9974,4.9997,5.0121,5.0161,5.0225,5.0313,5.031,5.0393,5.0424,5.0512,5.0535,5.0663,5.0686,5.0705,5.071,5.0707,5.0704,5.0741,5.0731,5.0716,5.0715,5.0714,5.0713,0,4.9764,4.98,4.9941,5.0021,5.0044,5.0133,5.0201,5.0279,5.0311,5.0423,5.045,5.0502,5.0605,5.064,5.0766,5.0781,5.093,5.0925,5.0904,5.0906,5.099,5.0982,5.1255,5.1293,5.1069,5.1071,5.1073,0,4.9878,4.9964,5.0053,5.0112,5.0157,5.0251,5.0312,5.0338,5.0402,5.0496,5.0562,5.0665,5.0748,5.0914,5.0963,5.106,5.1057,5.1147,5.1072,5.1066,5.106,5.1055,5.1065,5.1161,5.1163,5.1165,5.1166,0,5.0077,5.009,5.0178,5.0273,5.0345,5.0421,5.0494,5.0542,5.0579,5.0651,5.0756,5.0821,5.0949,5.1052,5.115,5.1195,5.1188,5.1189,5.1215,5.1212,5.1197,5.1208,5.0944,5.1183,5.1182,5.118,5.118,5.1179,5.0215,5.0292,5.0367,5.0465,5.0522,5.0591,5.0668,5.071,5.0799,5.0905,5.0915,5.103,5.1105,5.1236,5.1286,5.1376,5.1351,5.1387,5.1397,5.1405,5.1412,5.1182,5.1394,5.1393,5.1393,5.1393,5.1392,0,5.0415,5.0463,5.0552,5.0655,5.0732,5.0718,5.0798,5.0864,5.0965,5.1035,5.1118,5.124,5.1339,5.1396,5.1496,5.1558,5.1557,5.1583,5.1579,5.159,5.1428,5.1397,5.1582,5.1582,5.1582,5.1582,5.1582,5.1582,5.0528,5.0657,5.068,5.0837,5.0884,5.0996,5.1044,5.1107,5.1164,5.13,5.1383,5.1419,5.1485,5.1589,5.168,5.1694,5.1732,5.1761,5.1773,5.1621,5.1601,5.1583,5.1554,5.1768,5.1769,5.1927,5.1929,5.193]},{"header":{"parameterUnit":"m.s-1","parameterCategory":1,"la1":30.2991,"la2":30.254,"lo1":-89.0895,"lo2":-89.0444,"dy":0.0017,"dx":0.0017,"nx":28,"ny":28,"refTime":"2024-10-13T03:00:00:Z","depth":0,"parameterNumber":3,"parameterNumberName":"V-component_of_WINDS"},"data":[0,0,0,0,0,0,0,0,0,0,0,0,0,0,0,0,0,0,0,0,0,0,0,0,0,0,0,0,0,0,0,0,0,0,0,0,0,0,0,0,0,0,0,0,0,0,0,0,0,0,0,0,0,0,0,0,0,0,-1.9395,-1.9395,0,-1.9395,-1.9395,-1.9395,-1.9405,-1.9406,-1.9406,-1.9406,-1.9405,-1.9404,-1.9404,0,0,0,0,0,0,0,0,0,0,0,0,0,-1.9403,-1.9403,-1.9395,-1.9395,-1.9395,-1.9395,-1.9395,-1.9395,-1.9405,-1.9406,-1.9406,-1.9406,-1.9405,-1.9404,-1.9404,0,0,0,0,0,0,0,0,0,0,0,0,0,-1.9401,-1.9403,-1.9395,-1.94,-1.9401,-1.9395,-1.9395,-1.9395,-1.9405,-1.9406,-1.9406,-1.9406,-1.9405,-1.9404,-1.9404,-1.9393,0,0,-1.9403,-1.9402,0,0,0,0,0,0,0,0,-1.9401,-1.9401,-1.94,-1.94,-1.9401,-1.9401,-1.9397,-1.9394,-1.9405,-1.9404,-1.9406,-1.9407,-1.9403,-1.9403,-1.9402,-1.9393,-1.9393,-1.9403,-1.9402,-1.9402,-1.9402,0,0,0,0,0,0,0,-1.9401,-1.9401,-1.9395,-1.94,-1.94,-1.9402,-1.9402,-1.9397,-1.9401,-1.9404,-1.9404,-1.9404,-1.9403,-1.9402,-1.9402,-1.9393,-1.9403,-1.9402,-1.9402,-1.9402,-1.9374,-1.9373,0,0,0,0,0,0,-1.9401,-1.9401,-1.9395,-1.9395,-1.9402,-1.9402,-1.9402,-1.94,-1.9401,-1.9401,-1.9404,-1.9405,-1.9403,-1.9402,-1.9402,-1.9388,-1.9402,-1.9402,-1.9401,-1.9374,-1.9374,-1.9373,0,0,0,0,0,0,-1.9401,-1.94,-1.9395,-1.9398,-1.9398,-1.9401,-1.9399,-1.94,-1.9399,-1.9401,-1.9402,-1.9402,-1.9403,-1.9402,-1.9395,-1.9388,-1.9401,-1.9401,-1.9375,-1.9374,-1.9373,-1.9361,0,0,0,0,0,0,-1.9401,-1.94,-1.9396,-1.9398,-1.9397,-1.9389,-1.9399,-1.94,-1.9398,-1.9399,-1.94,-1.94,-1.9403,-1.9395,-1.9394,-1.9388,-1.9401,-1.9375,-1.9375,-1.9374,-1.9362,-1.936,-1.9358,0,0,0,0,0,-1.9401,-1.9393,-1.9396,-1.9395,-1.9393,-1.9389,-1.9388,-1.9392,-1.9398,-1.9394,-1.9395,-1.94,-1.9389,-1.9395,-1.9394,-1.9387,-1.9376,-1.9375,-1.9374,-1.9363,-1.936,-1.9358,0,0,0,0,0,0,-1.939,-1.9393,-1.9397,-1.9389,-1.9388,-1.939,-1.9385,-1.939,-1.9387,-1.9388,-1.9393,-1.9393,-1.9385,-1.9385,-1.9391,-1.9376,-1.9383,-1.9382,-1.9376,-1.9373,-1.9371,-1.9371,-1.94,0,0,0,0,0,-1.9387,-1.9383,-1.9386,-1.9379,-1.9378,-1.9382,-1.938,-1.9383,-1.9383,-1.9383,-1.9383,-1.9382,-1.9379,-1.9376,-1.9373,-1.9362,-1.9362,-1.9357,-1.9355,-1.9354,-1.9352,-1.9346,-1.9343,-1.937,-1.937,-1.937,0,0,-1.9379,-1.9381,-1.9378,-1.9376,-1.9376,-1.9372,-1.9381,-1.9377,-1.9373,-1.9382,-1.9375,-1.9375,-1.9374,-1.9365,-1.9361,-1.9365,-1.9345,-1.9352,-1.9351,-1.935,-1.9344,-1.9342,-1.9339,-1.9369,-1.9369,-1.9369,0,0,-1.9364,-1.9365,-1.9359,-1.9358,-1.9359,-1.9361,-1.9359,-1.9361,-1.9361,-1.9355,-1.936,-1.9356,-1.935,-1.9349,-1.9347,-1.9331,-1.9335,-1.933,-1.932,-1.9313,-1.9311,-1.9309,-1.9303,-1.93,-1.9329,-1.9329,-1.9329,0,-1.9355,-1.9349,-1.9355,-1.9349,-1.9348,-1.9356,-1.9349,-1.9348,-1.9347,-1.9345,-1.935,-1.9342,-1.9342,-1.9332,-1.9328,-1.9327,-1.9325,-1.933,-1.9311,-1.9309,-1.9308,-1.9301,-1.9299,-1.9328,-1.9328,-1.9328,-1.9328,0,-1.9338,-1.9333,-1.9328,-1.9327,-1.9325,-1.9319,-1.9323,-1.932,-1.9324,-1.9325,-1.9318,-1.9318,-1.9315,-1.9313,-1.9316,-1.9303,-1.9305,-1.9311,-1.9318,-1.9304,-1.9298,-1.9296,-1.9327,-1.9327,-1.9327,-1.9328,0,0,-1.9315,-1.9317,-1.9314,-1.9314,-1.9314,-1.9311,-1.9305,-1.9302,-1.9299,-1.9298,-1.9292,-1.9287,-1.9292,-1.929,-1.9293,-1.9288,-1.9273,-1.9293,-1.9293,-1.9289,-1.9258,-1.9253,-1.9251,-1.9277,-1.9276,-1.9276,-1.9258,0,-1.9299,-1.9289,-1.9294,-1.9283,-1.9279,-1.9286,-1.9281,-1.928,-1.9281,-1.9278,-1.9279,-1.9274,-1.9282,-1.928,-1.9275,-1.9276,-1.9267,-1.9278,-1.927,-1.927,-1.9269,-1.9248,-1.9243,-1.9226,-1.9256,-1.9255,-1.9255,0,-1.9279,-1.9278,-1.9267,-1.9267,-1.9266,-1.9261,-1.9258,-1.9255,-1.9254,-1.9255,-1.9253,-1.9257,-1.9251,-1.9259,-1.9249,-1.9256,-1.9254,-1.9254,-1.9253,-1.9252,-1.9261,-1.9245,-1.9221,-1.9218,-1.9251,-1.9252,-1.9252,0,-1.9263,-1.9258,-1.925,-1.925,-1.9251,-1.9247,-1.9247,-1.9246,-1.9244,-1.9242,-1.924,-1.9237,-1.9234,-1.9231,-1.9234,-1.924,-1.9223,-1.9232,-1.9223,-1.9223,-1.9219,-1.9219,-1.9193,-1.9219,-1.9219,-1.9219,-1.9219,0,-1.9244,-1.9237,-1.9243,-1.9238,-1.923,-1.9235,-1.9226,-1.9227,-1.9227,-1.9222,-1.9228,-1.9223,-1.9227,-1.9223,-1.9225,-1.9216,-1.9215,-1.9215,-1.9215,-1.9214,-1.9214,-1.9212,-1.9213,-1.9218,-1.9218,-1.9218,-1.9219,0,-1.9224,-1.9227,-1.922,-1.9221,-1.9221,-1.9215,-1.9216,-1.9212,-1.9213,-1.9207,-1.9206,-1.9208,-1.9203,-1.9206,-1.92,-1.9201,-1.9189,-1.9192,-1.919,-1.919,-1.9181,-1.9181,-1.9152,-1.9147,-1.9177,-1.9176,-1.9176,0,-1.9211,-1.9206,-1.9207,-1.9204,-1.9204,-1.92,-1.9198,-1.9202,-1.9199,-1.9198,-1.9193,-1.9188,-1.9185,-1.9176,-1.9176,-1.9172,-1.9174,-1.9164,-1.9173,-1.9171,-1.9172,-1.9172,-1.9171,-1.9161,-1.9161,-1.9161,-1.9161,0,-1.9189,-1.9191,-1.9187,-1.9185,-1.9182,-1.918,-1.9178,-1.9175,-1.918,-1.9176,-1.9171,-1.9168,-1.9163,-1.9157,-1.9153,-1.9153,-1.9157,-1.9158,-1.9155,-1.9153,-1.9152,-1.9151,-1.9184,-1.9158,-1.9159,-1.9159,-1.9159,-1.9159,-1.9171,-1.9166,-1.9166,-1.9162,-1.9162,-1.916,-1.9155,-1.9157,-1.9153,-1.9149,-1.9151,-1.9145,-1.9143,-1.9139,-1.9137,-1.9132,-1.9135,-1.9132,-1.9131,-1.913,-1.9128,-1.9153,-1.9131,-1.9131,-1.9131,-1.9131,-1.9131,0,-1.9148,-1.9148,-1.9144,-1.9142,-1.9139,-1.9144,-1.9142,-1.9139,-1.9133,-1.9132,-1.9128,-1.9122,-1.9116,-1.9117,-1.9112,-1.9107,-1.9109,-1.9106,-1.9106,-1.9105,-1.9126,-1.9128,-1.9104,-1.9104,-1.9104,-1.9104,-1.9104,-1.9104,-1.9135,-1.9127,-1.9129,-1.9121,-1.9121,-1.9115,-1.9113,-1.9111,-1.911,-1.9103,-1.9099,-1.9099,-1.9098,-1.9093,-1.9088,-1.9089,-1.9086,-1.9082,-1.9082,-1.9101,-1.9104,-1.9106,-1.9108,-1.9081,-1.9081,-1.9062,-1.9062,-1.9062]}]]